Miscellaneous Local Product
Issued by NWS Hastings, NE

Home | Current Version | Previous Version | Text Only | Print | Product List | Glossary On
Versions: 1 2 3 4 5 6 7 8 9 10 11 12 13 14 15 16 17 18 19 20 21 22 23 24 25 26 27 28 29 30 31 32 33 34 35 36 37 38 39 40 41 42 43 44 45 46 47 48 49 50
584
AXUS43 KGID 192102
MISGRI

GID CWA HOURLY WEATHER ROUNDUP
NATIONAL WEATHER SERVICE HASTINGS NE
300 PM CST THU JAN 19 2017

NOTE: "FAIR" INDICATES FEW OR NO CLOUDS BELOW 12,000 FEET WITH NO
SIGNIFICANT WEATHER AND/OR OBSTRUCTIONS TO VISIBILITY.

...SOUTH CENTRAL NEBRASKA...

CITY           SKY/WX    TMP DP  RH WIND       PRES   REMARKS
GRAND ISLAND   CLOUDY    42  42 100 S8        29.61F FOG
HASTINGS       CLOUDY    42  41  96 S7        29.62S FOG
KEARNEY        CLOUDY    43  39  87 S7        29.59F
ORD            CLOUDY    41  39  93 S6        29.57S FOG
YORK           SUNNY     41  41 100 S7        29.64R FOG
AURORA         CLOUDY    41  41 100 SE10      29.62S FOG
LEXINGTON      CLOUDY    42  40  95 S6        29.58S
HOLDREGE       CLOUDY    42  41  97 S7        29.59R FOG
HEBRON         CLOUDY    43  43  98 SE9       29.62F FOG

...NEBRASKA PANHANDLE...

CITY           SKY/WX    TMP DP  RH WIND       PRES   REMARKS
CHADRON        SUNNY     41  27  57 W5        29.48F
ALLIANCE       SUNNY     52  22  30 W10       29.48F
SCOTTSBLUFF    SUNNY     54  24  31 CALM      29.49F
SIDNEY         SUNNY     53  22  29 VRB3      29.51F

...WESTERN AND NORTH CENTRAL NEBRASKA...

CITY           SKY/WX    TMP DP  RH WIND       PRES   REMARKS
VALENTINE      SUNNY     56  21  25 W16       29.47F
AINSWORTH      SUNNY     42  36  78 S16       29.50F
ONEILL         CLOUDY    43  42  98 S10       29.57R FOG
BROKEN BOW     CLOUDY    41  40  96 SW9       29.56S FOG
IMPERIAL       SUNNY     43  34  70 VRB7      29.53F
NORTH PLATTE   CLOUDY    39  39 100 S3        29.56F FOG
MCCOOK         CLOUDY    36  36 100 W6        29.58R FOG     WCI  31

...EASTERN NEBRASKA...

CITY           SKY/WX    TMP DP  RH WIND       PRES   REMARKS
NORFOLK        CLOUDY    40  39  97 SE9       29.61F FOG     WCI  34
SO SIOUX CITY  FOG       41  39  93 S7        29.66F VSB 1
TEKAMAH        FOG       39  37  93 S6        29.66F VSB 1   WCI  35
COLUMBUS       CLOUDY    41  39  93 SE9       29.65S
ALBION         CLOUDY    40  40 100 S9        29.60S FOG     WCI  34
OMAHA EPPLEY   CLOUDY    45  40  82 S5        29.67F FOG
OFFUTT AFB     CLOUDY    43  43 100 SE3       29.67S
MILLARD        CLOUDY    45  42  91 SE3       29.67S FOG
LINCOLN        CLOUDY    42  41  96 S8        29.66F FOG
NEBRASKA CITY  CLOUDY    43  43 100 SE3       29.66F FOG
BEATRICE       CLOUDY    44  43  97 S3        29.64F FOG
FALLS CITY     CLOUDY    46  44  93 S8        29.66F

...NORTHERN KANSAS...

CITY           SKY/WX    TMP DP  RH WIND       PRES   REMARKS
GOODLAND       SUNNY     41  35  79 CALM      29.53F
HILL CITY      CLOUDY    47  42  83 SE8       29.58S
NORTON         CLOUDY    43  37  81 SE6       29.58R
PHILLIPSBURG   CLOUDY    45  45 100 SE3       29.60S
SMITH CENTER   CLOUDY    43  43 100 SE5       29.61S FOG
HAYS           CLOUDY    45  43  93 SE9       29.58F
RUSSELL        CLOUDY    46  44  93 SE9       29.57F FOG
CONCORDIA      CLOUDY    44  44 100 SE10      29.61F FOG
SALINA         CLOUDY    48  45  89 E9        29.61F
TOPEKA         CLOUDY    48  44  86 SE7       29.66F



USA.gov is the U.S. government's official web portal to all federal, state and local government web resources and services.